Regional Weather Roundup
Issued by NWS

Home | Current Version | Previous Version | Text Only | Print | Product List | Glossary On
Versions: 1 2 3 4 5 6 7 8 9 10 11 12 13 14 15 16 17 18 19 20 21 22 23 24 25 26 27 28 29 30 31 32 33 34 35 36 37 38 39 40 41 42 43 44 45 46 47 48 49 50
299
ASCA42 TJSJ 260910
RWRPR
PUERTO RICO/U.S. VIRGIN ISLANDS HOURLY WEATHER ROUNDUP
NATIONAL WEATHER SERVICE SAN JUAN PR
500 AM AST TUE JUL 26 2016

PRZ001-004-261000-
PUERTO RICO

CITY           SKY/WX    TMP DP  RH WIND       PRES   REMARKS
SAN JUAN LMM   MOCLDY    79  77  94 CALM      29.97R
CEIBA          PTCLDY    79  75  89 NE7       29.98S
$$

PRZ006-007-261000-
U.S. VIRGIN ISLANDS

CITY           SKY/WX    TMP DP  RH WIND       PRES   REMARKS
CHARLOTTE AMA  CLEAR     82  79  89 E8        29.95S HX  93
CHRISTIANSTED  LGT RAIN  81  77  89 NE9       29.96S
$$

HOURLY WEATHER ROUNDUP FOR THE NEWS MEDIA

CITY           SKY/WX    TMP DP  RH WIND       PRES   REMARKS
ORLANDO        CLEAR     78  74  87 SW3       30.07S
NEW YORK       CLEAR     75  68  78 W13       29.88R
NEWARK         CLEAR     73  69  87 W7        29.87S
CHICAGO        PTCLDY    70  63  78 CALM      30.03S
HARTFORD       CLEAR     71  68  90 W5        29.80R
BOSTON         CLEAR     77  67  71 W9        29.78R
DALLAS         CLOUDY    81  71  71 W3        29.94F
PHILADELPHIA   MOCLDY    75  71  87 NW9       29.91S
LOS ANGELES    MOCLDY    68  64  87 NW6       29.91F
WASHINGTON DC  MOCLDY    76  72  87 CALM      29.93F



USA.gov is the U.S. government's official web portal to all federal, state and local government web resources and services.